Year,Month,Day,Hour,Minute,Value (Times are PST for temperature in C)
2014,07,07,00,00,16.20
2014,07,07,00,01,16.20
2014,07,07,00,02,16.20
2014,07,07,00,03,16.20
2014,07,07,00,04,16.20
2014,07,07,00,05,16.20
2014,07,07,00,06,16.20
2014,07,07,00,07,16.20
2014,07,07,00,08,16.20
2014,07,07,00,09,16.10
2014,07,07,00,10,16.10
2014,07,07,00,11,16.10
2014,07,07,00,12,16.10
2014,07,07,00,13,16.10
2014,07,07,00,14,16.10
2014,07,07,00,15,16.10
2014,07,07,00,16,16.10
2014,07,07,00,17,16.10
2014,07,07,00,18,16.10
2014,07,07,00,19,16.10
2014,07,07,00,20,16.10
2014,07,07,00,21,16.10
2014,07,07,00,22,16.10
2014,07,07,00,23,16.10
2014,07,07,00,24,16.10
2014,07,07,00,25,16.10
2014,07,07,00,26,16.10
2014,07,07,00,27,16.10
2014,07,07,00,28,16.10
2014,07,07,00,29,16.10
2014,07,07,00,30,16.10
2014,07,07,00,31,16.10
2014,07,07,00,32,16.10
2014,07,07,00,33,16.10
2014,07,07,00,34,16.10
2014,07,07,00,35,16.00
2014,07,07,00,36,16.00
2014,07,07,00,37,16.00
2014,07,07,00,38,16.00
2014,07,07,00,39,16.00
2014,07,07,00,40,15.90
2014,07,07,00,41,15.90
2014,07,07,00,42,15.90
2014,07,07,00,43,15.90
2014,07,07,00,44,15.90
2014,07,07,00,45,15.80
2014,07,07,00,46,15.80
2014,07,07,00,47,15.80
2014,07,07,00,48,15.80
2014,07,07,00,49,15.80
2014,07,07,00,50,15.80
2014,07,07,00,51,15.80
2014,07,07,00,52,15.80
2014,07,07,00,53,15.80
2014,07,07,00,54,15.80
2014,07,07,00,55,15.70
2014,07,07,00,56,15.70
2014,07,07,00,57,15.70
2014,07,07,00,58,15.70
2014,07,07,00,59,15.70
2014,07,07,01,00,15.70
2014,07,07,01,01,15.70
2014,07,07,01,02,15.70
2014,07,07,01,03,15.70
2014,07,07,01,04,15.70
2014,07,07,01,05,15.70
2014,07,07,01,06,15.70
2014,07,07,01,07,15.70
2014,07,07,01,08,15.70
2014,07,07,01,09,15.70
2014,07,07,01,10,15.70
2014,07,07,01,11,15.70
2014,07,07,01,12,15.70
2014,07,07,01,13,15.70
2014,07,07,01,14,15.70
2014,07,07,01,15,15.70
2014,07,07,01,16,15.70
2014,07,07,01,17,15.70
2014,07,07,01,18,15.70
2014,07,07,01,19,15.70
2014,07,07,01,20,15.70
2014,07,07,01,21,15.70
2014,07,07,01,22,15.70
2014,07,07,01,23,15.70
2014,07,07,01,24,15.70
2014,07,07,01,25,15.70
2014,07,07,01,26,15.70
2014,07,07,01,27,15.70
2014,07,07,01,28,15.70
2014,07,07,01,29,15.60
2014,07,07,01,30,15.60
2014,07,07,01,31,15.60
2014,07,07,01,32,15.60
2014,07,07,01,33,15.60
2014,07,07,01,34,15.60
2014,07,07,01,35,15.60
2014,07,07,01,36,15.60
2014,07,07,01,37,15.60
2014,07,07,01,38,15.60
2014,07,07,01,39,15.60
2014,07,07,01,40,15.60
2014,07,07,01,41,15.60
2014,07,07,01,42,15.60
2014,07,07,01,43,15.60
2014,07,07,01,44,15.60
2014,07,07,01,45,15.60
2014,07,07,01,46,15.60
2014,07,07,01,47,15.60
2014,07,07,01,48,15.60
2014,07,07,01,49,15.60
2014,07,07,01,50,15.60
2014,07,07,01,51,15.60
2014,07,07,01,52,15.60
2014,07,07,01,53,15.60
2014,07,07,01,54,15.60
2014,07,07,01,55,15.60
2014,07,07,01,56,15.60
2014,07,07,01,57,15.60
2014,07,07,01,58,15.60
2014,07,07,01,59,15.60
2014,07,07,02,00,15.60
2014,07,07,02,01,15.60
2014,07,07,02,02,15.60
2014,07,07,02,03,15.60
2014,07,07,02,04,15.70
2014,07,07,02,05,15.70
2014,07,07,02,06,15.70
2014,07,07,02,07,15.70
2014,07,07,02,08,15.70
2014,07,07,02,09,15.70
2014,07,07,02,10,15.70
2014,07,07,02,11,15.70
2014,07,07,02,12,15.70
2014,07,07,02,13,15.70
2014,07,07,02,14,15.70
2014,07,07,02,15,15.70
2014,07,07,02,16,15.70
2014,07,07,02,17,15.70
2014,07,07,02,18,15.70
2014,07,07,02,19,15.70
2014,07,07,02,20,15.70
2014,07,07,02,21,15.80
2014,07,07,02,22,15.80
2014,07,07,02,23,15.80
2014,07,07,02,24,15.80
2014,07,07,02,25,15.80
2014,07,07,02,26,15.80
2014,07,07,02,27,15.80
2014,07,07,02,28,15.80
2014,07,07,02,29,15.80
2014,07,07,02,30,15.80
2014,07,07,02,31,15.80
2014,07,07,02,32,15.80
2014,07,07,02,33,15.80
2014,07,07,02,34,15.80
2014,07,07,02,35,15.80
2014,07,07,02,36,15.90
2014,07,07,02,37,15.90
2014,07,07,02,38,15.90
2014,07,07,02,39,15.90
2014,07,07,02,40,15.90
2014,07,07,02,41,15.90
2014,07,07,02,42,15.90
2014,07,07,02,43,15.90
2014,07,07,02,44,16.00
2014,07,07,02,45,16.00
2014,07,07,02,46,16.00
2014,07,07,02,47,16.00
2014,07,07,02,48,16.00
2014,07,07,02,49,16.00
2014,07,07,02,50,16.00
2014,07,07,02,51,16.00
2014,07,07,02,52,15.90
2014,07,07,02,53,15.90
2014,07,07,02,54,15.90
2014,07,07,02,55,15.90
2014,07,07,02,56,15.90
2014,07,07,02,57,15.90
2014,07,07,02,58,15.90
2014,07,07,02,59,15.90
2014,07,07,03,00,15.90
2014,07,07,03,01,15.90
2014,07,07,03,02,15.90
2014,07,07,03,03,15.90
2014,07,07,03,04,15.90
2014,07,07,03,05,15.90
2014,07,07,03,06,15.90
2014,07,07,03,07,15.90
2014,07,07,03,08,15.90
2014,07,07,03,09,15.90
2014,07,07,03,10,15.90
2014,07,07,03,11,15.90
2014,07,07,03,12,15.90
2014,07,07,03,13,15.90
2014,07,07,03,14,15.90
2014,07,07,03,15,15.90
2014,07,07,03,16,15.90
2014,07,07,03,17,15.90
2014,07,07,03,18,15.90
2014,07,07,03,19,15.90
2014,07,07,03,20,15.90
2014,07,07,03,21,15.90
2014,07,07,03,22,15.90
2014,07,07,03,23,15.90
2014,07,07,03,24,15.90
2014,07,07,03,25,15.90
2014,07,07,03,26,15.90
2014,07,07,03,27,15.90
2014,07,07,03,28,16.00
2014,07,07,03,29,15.90
2014,07,07,03,30,15.90
2014,07,07,03,31,15.90
2014,07,07,03,32,15.90
2014,07,07,03,33,15.90
2014,07,07,03,34,15.90
2014,07,07,03,35,15.90
2014,07,07,03,36,15.90
2014,07,07,03,37,15.90
2014,07,07,03,38,15.90
2014,07,07,03,39,15.90
2014,07,07,03,40,15.90
2014,07,07,03,41,15.90
2014,07,07,03,42,15.90
2014,07,07,03,43,15.90
2014,07,07,03,44,15.90
2014,07,07,03,45,15.90
2014,07,07,03,46,15.90
2014,07,07,03,47,15.90
2014,07,07,03,48,15.90
2014,07,07,03,49,15.90
2014,07,07,03,50,15.90
2014,07,07,03,51,15.90
2014,07,07,03,52,15.90
2014,07,07,03,53,15.90
2014,07,07,03,54,15.90
2014,07,07,03,55,15.90
2014,07,07,03,56,15.90
2014,07,07,03,57,15.90
2014,07,07,03,58,15.90
2014,07,07,03,59,15.90
2014,07,07,04,00,15.90
2014,07,07,04,01,15.90
2014,07,07,04,02,15.90
2014,07,07,04,03,15.90
2014,07,07,04,04,15.90
2014,07,07,04,05,15.90
2014,07,07,04,06,15.90
2014,07,07,04,07,15.90
2014,07,07,04,08,15.90
2014,07,07,04,09,15.90
2014,07,07,04,10,15.90
2014,07,07,04,11,15.90
2014,07,07,04,12,15.90
2014,07,07,04,13,15.90
2014,07,07,04,14,15.90
2014,07,07,04,15,15.90
2014,07,07,04,16,15.90
2014,07,07,04,17,15.90
2014,07,07,04,18,15.90
2014,07,07,04,19,16.00
2014,07,07,04,20,15.90
2014,07,07,04,21,16.00
2014,07,07,04,22,15.90
2014,07,07,04,23,16.00
2014,07,07,04,24,16.00
2014,07,07,04,25,16.00
2014,07,07,04,26,16.00
2014,07,07,04,27,16.00
2014,07,07,04,28,16.00
2014,07,07,04,29,16.00
2014,07,07,04,30,16.00
2014,07,07,04,31,16.00
2014,07,07,04,32,16.00
2014,07,07,04,33,16.00
2014,07,07,04,34,16.00
2014,07,07,04,35,16.00
2014,07,07,04,36,16.00
2014,07,07,04,37,16.00
2014,07,07,04,38,16.00
2014,07,07,04,39,16.10
2014,07,07,04,40,16.10
2014,07,07,04,41,16.10
2014,07,07,04,42,16.10
2014,07,07,04,43,16.10
2014,07,07,04,44,16.10
2014,07,07,04,45,16.10
2014,07,07,04,46,16.10
2014,07,07,04,47,16.10
2014,07,07,04,48,16.10
2014,07,07,04,49,16.10
2014,07,07,04,50,16.10
2014,07,07,04,51,16.10
2014,07,07,04,52,16.10
2014,07,07,04,53,16.10
2014,07,07,04,54,16.10
2014,07,07,04,55,16.10
2014,07,07,04,56,16.10
2014,07,07,04,57,16.10
2014,07,07,04,58,16.10
2014,07,07,04,59,16.10
2014,07,07,05,00,16.10
2014,07,07,05,01,16.10
2014,07,07,05,02,16.10
2014,07,07,05,03,16.10
2014,07,07,05,04,16.10
2014,07,07,05,05,16.10
2014,07,07,05,06,16.10
2014,07,07,05,07,16.10
2014,07,07,05,08,16.10
2014,07,07,05,09,16.10
2014,07,07,05,10,16.10
2014,07,07,05,11,16.10
2014,07,07,05,12,16.10
2014,07,07,05,13,16.10
2014,07,07,05,14,16.10
2014,07,07,05,15,16.10
2014,07,07,05,16,16.10
2014,07,07,05,17,16.10
2014,07,07,05,18,16.10
2014,07,07,05,19,16.00
2014,07,07,05,20,16.00
2014,07,07,05,21,16.00
2014,07,07,05,22,16.00
2014,07,07,05,23,16.00
2014,07,07,05,24,16.00
2014,07,07,05,25,16.10
2014,07,07,05,26,16.00
2014,07,07,05,27,16.10
2014,07,07,05,28,16.10
2014,07,07,05,29,16.10
2014,07,07,05,30,16.10
2014,07,07,05,31,16.10
2014,07,07,05,32,16.10
2014,07,07,05,33,16.10
2014,07,07,05,34,16.10
2014,07,07,05,35,16.10
2014,07,07,05,36,16.10
2014,07,07,05,37,16.10
2014,07,07,05,38,16.10
2014,07,07,05,39,16.10
2014,07,07,05,40,16.10
2014,07,07,05,41,16.10
2014,07,07,05,42,16.10
2014,07,07,05,43,16.10
2014,07,07,05,44,16.10
2014,07,07,05,45,16.10
2014,07,07,05,46,16.20
2014,07,07,05,47,16.20
2014,07,07,05,48,16.20
2014,07,07,05,49,16.20
2014,07,07,05,50,16.20
2014,07,07,05,51,16.20
2014,07,07,05,52,16.20
2014,07,07,05,53,16.20
2014,07,07,05,54,16.20
2014,07,07,05,55,16.20
2014,07,07,05,56,16.20
2014,07,07,05,57,16.20
2014,07,07,05,58,16.20
2014,07,07,05,59,16.20
2014,07,07,06,00,16.20
2014,07,07,06,01,16.20
2014,07,07,06,02,16.20
2014,07,07,06,03,16.20
2014,07,07,06,04,16.20
2014,07,07,06,05,16.20
2014,07,07,06,06,16.20
2014,07,07,06,07,16.30
2014,07,07,06,08,16.30
2014,07,07,06,09,16.30
2014,07,07,06,10,16.30
2014,07,07,06,11,16.30
2014,07,07,06,12,16.30
2014,07,07,06,13,16.30
2014,07,07,06,14,16.30
2014,07,07,06,15,16.30
2014,07,07,06,16,16.30
2014,07,07,06,17,16.30
2014,07,07,06,18,16.30
2014,07,07,06,19,16.40
2014,07,07,06,20,16.40
2014,07,07,06,21,16.40
2014,07,07,06,22,16.40
2014,07,07,06,23,16.40
2014,07,07,06,24,16.40
2014,07,07,06,25,16.40
2014,07,07,06,26,16.40
2014,07,07,06,27,16.40
2014,07,07,06,28,16.40
2014,07,07,06,29,16.40
2014,07,07,06,30,16.40
2014,07,07,06,31,16.40
2014,07,07,06,32,16.40
2014,07,07,06,33,16.40
2014,07,07,06,34,16.40
2014,07,07,06,35,16.40
2014,07,07,06,36,16.40
2014,07,07,06,37,16.40
2014,07,07,06,38,16.40
2014,07,07,06,39,16.40
2014,07,07,06,40,16.40
2014,07,07,06,41,16.40
2014,07,07,06,42,16.40
2014,07,07,06,43,16.40
2014,07,07,06,44,16.40
2014,07,07,06,45,16.40
2014,07,07,06,46,16.40
2014,07,07,06,47,16.40
2014,07,07,06,48,16.40
2014,07,07,06,49,16.40
2014,07,07,06,50,16.40
2014,07,07,06,51,16.40
2014,07,07,06,52,16.40
2014,07,07,06,53,16.40
2014,07,07,06,54,16.40
2014,07,07,06,55,16.50
2014,07,07,06,56,16.50
2014,07,07,06,57,16.50
2014,07,07,06,58,16.50
2014,07,07,06,59,16.50
2014,07,07,07,00,16.50
2014,07,07,07,01,16.50
2014,07,07,07,02,16.50
2014,07,07,07,03,16.50
2014,07,07,07,04,16.50
2014,07,07,07,05,16.50
2014,07,07,07,06,16.50
2014,07,07,07,07,16.50
2014,07,07,07,08,16.50
2014,07,07,07,09,16.50
2014,07,07,07,10,16.50
2014,07,07,07,11,16.50
2014,07,07,07,12,16.50
2014,07,07,07,13,16.50
2014,07,07,07,14,16.50
2014,07,07,07,15,16.50
2014,07,07,07,16,16.50
2014,07,07,07,17,16.50
2014,07,07,07,18,16.50
2014,07,07,07,19,16.50
2014,07,07,07,20,16.60
2014,07,07,07,21,16.60
2014,07,07,07,22,16.60
2014,07,07,07,23,16.60
2014,07,07,07,24,16.60
2014,07,07,07,25,16.70
2014,07,07,07,26,16.70
2014,07,07,07,27,16.70
2014,07,07,07,28,16.70
2014,07,07,07,29,16.70
2014,07,07,07,30,16.70
2014,07,07,07,31,16.70
2014,07,07,07,32,16.70
2014,07,07,07,33,16.80
2014,07,07,07,34,16.80
2014,07,07,07,35,16.80
2014,07,07,07,36,16.80
2014,07,07,07,37,16.80
2014,07,07,07,38,16.80
2014,07,07,07,39,16.80
2014,07,07,07,40,16.80
2014,07,07,07,41,16.80
2014,07,07,07,42,16.80
2014,07,07,07,43,16.80
2014,07,07,07,44,16.80
2014,07,07,07,45,16.80
2014,07,07,07,46,16.80
2014,07,07,07,47,16.80
2014,07,07,07,48,16.80
2014,07,07,07,49,16.80
2014,07,07,07,50,16.80
2014,07,07,07,51,16.80
2014,07,07,07,52,16.80
2014,07,07,07,53,16.80
2014,07,07,07,54,16.80
2014,07,07,07,55,16.80
2014,07,07,07,56,16.80
2014,07,07,07,57,16.80
2014,07,07,07,58,16.80
2014,07,07,07,59,16.80
2014,07,07,08,00,16.80
2014,07,07,08,01,16.80
2014,07,07,08,02,16.80
2014,07,07,08,03,16.80
2014,07,07,08,04,16.80
2014,07,07,08,05,16.80
2014,07,07,08,06,16.80
2014,07,07,08,07,16.80
2014,07,07,08,08,16.80
2014,07,07,08,09,16.80
2014,07,07,08,10,16.80
2014,07,07,08,11,16.70
2014,07,07,08,12,16.70
2014,07,07,08,13,16.80
2014,07,07,08,14,16.80
2014,07,07,08,15,16.80
2014,07,07,08,16,16.80
2014,07,07,08,17,16.80
2014,07,07,08,18,16.80
2014,07,07,08,19,16.80
2014,07,07,08,20,16.80
2014,07,07,08,21,16.80
2014,07,07,08,22,16.80
2014,07,07,08,23,16.80
2014,07,07,08,24,16.90
2014,07,07,08,25,16.90
2014,07,07,08,26,16.90
2014,07,07,08,27,16.90
2014,07,07,08,28,16.90
2014,07,07,08,29,17.00
2014,07,07,08,30,17.00
2014,07,07,08,31,17.00
2014,07,07,08,32,17.00
2014,07,07,08,33,17.00
2014,07,07,08,34,17.10
2014,07,07,08,35,17.10
2014,07,07,08,36,17.10
2014,07,07,08,37,17.10
2014,07,07,08,38,17.10
2014,07,07,08,39,17.10
2014,07,07,08,40,17.10
2014,07,07,08,41,17.10
2014,07,07,08,42,17.10
2014,07,07,08,43,17.10
2014,07,07,08,44,17.10
2014,07,07,08,45,17.10
2014,07,07,08,46,17.10
2014,07,07,08,47,17.20
2014,07,07,08,48,17.20
2014,07,07,08,49,17.20
2014,07,07,08,50,17.20
2014,07,07,08,51,17.20
2014,07,07,08,52,17.20
2014,07,07,08,53,17.20
2014,07,07,08,54,17.20
2014,07,07,08,55,17.20
2014,07,07,08,56,17.20
2014,07,07,08,57,17.30
2014,07,07,08,58,17.30
2014,07,07,08,59,17.30
2014,07,07,09,00,17.30
2014,07,07,09,01,17.30
2014,07,07,09,02,17.30
2014,07,07,09,03,17.30
2014,07,07,09,04,17.30
2014,07,07,09,05,17.30
2014,07,07,09,06,17.30
2014,07,07,09,07,17.30
2014,07,07,09,08,17.40
2014,07,07,09,09,17.40
2014,07,07,09,10,17.40
2014,07,07,09,11,17.40
2014,07,07,09,12,17.50
2014,07,07,09,13,17.50
2014,07,07,09,14,17.50
2014,07,07,09,15,17.50
2014,07,07,09,16,17.50
2014,07,07,09,17,17.50
2014,07,07,09,18,17.60
2014,07,07,09,19,17.60
2014,07,07,09,20,17.60
2014,07,07,09,21,17.70
2014,07,07,09,22,17.70
2014,07,07,09,23,17.80
2014,07,07,09,24,17.80
2014,07,07,09,25,17.80
2014,07,07,09,26,17.80
2014,07,07,09,27,17.90
2014,07,07,09,28,17.90
2014,07,07,09,29,17.90
2014,07,07,09,30,17.90
2014,07,07,09,31,18.00
2014,07,07,09,32,18.00
2014,07,07,09,33,18.10
2014,07,07,09,34,18.10
2014,07,07,09,35,18.10
2014,07,07,09,36,18.10
2014,07,07,09,37,18.10
2014,07,07,09,38,18.10
2014,07,07,09,39,18.10
2014,07,07,09,40,18.10
2014,07,07,09,41,18.10
2014,07,07,09,42,18.10
2014,07,07,09,43,18.00
2014,07,07,09,44,17.90
2014,07,07,09,45,17.80
2014,07,07,09,46,17.80
2014,07,07,09,47,17.80
2014,07,07,09,48,17.80
2014,07,07,09,49,17.80
2014,07,07,09,50,17.90
2014,07,07,09,51,18.00
2014,07,07,09,52,18.00
2014,07,07,09,53,18.10
2014,07,07,09,54,18.10
2014,07,07,09,55,18.20
2014,07,07,09,56,18.20
2014,07,07,09,57,18.20
2014,07,07,09,58,18.20
2014,07,07,09,59,18.20
2014,07,07,10,00,18.20
2014,07,07,10,01,18.30
2014,07,07,10,02,18.30
2014,07,07,10,03,18.40
2014,07,07,10,04,18.40
2014,07,07,10,05,18.40
2014,07,07,10,06,18.40
2014,07,07,10,07,18.40
2014,07,07,10,08,18.40
2014,07,07,10,09,18.50
2014,07,07,10,10,18.50
2014,07,07,10,11,18.60
2014,07,07,10,12,18.70
2014,07,07,10,13,18.70
2014,07,07,10,14,18.70
2014,07,07,10,15,18.70
2014,07,07,10,16,18.70
2014,07,07,10,17,18.60
2014,07,07,10,18,18.60
2014,07,07,10,19,18.60
2014,07,07,10,20,18.70
2014,07,07,10,21,18.70
2014,07,07,10,22,18.70
2014,07,07,10,23,18.60
2014,07,07,10,24,18.60
2014,07,07,10,25,18.60
2014,07,07,10,26,18.60
2014,07,07,10,27,18.50
2014,07,07,10,28,18.50
2014,07,07,10,29,18.50
2014,07,07,10,30,18.50
2014,07,07,10,31,18.40
2014,07,07,10,32,18.40
2014,07,07,10,33,18.40
2014,07,07,10,34,18.40
2014,07,07,10,35,18.40
2014,07,07,10,36,18.40
2014,07,07,10,37,18.40
2014,07,07,10,38,18.40
2014,07,07,10,39,18.50
2014,07,07,10,40,18.50
2014,07,07,10,41,18.60
2014,07,07,10,42,18.70
2014,07,07,10,43,18.80
2014,07,07,10,44,18.80
2014,07,07,10,45,18.80
2014,07,07,10,46,18.70
2014,07,07,10,47,18.70
2014,07,07,10,48,18.60
2014,07,07,10,49,18.60
2014,07,07,10,50,18.60
2014,07,07,10,51,18.60
2014,07,07,10,52,18.60
2014,07,07,10,53,18.60
2014,07,07,10,54,18.60
2014,07,07,10,55,18.70
2014,07,07,10,56,18.70
2014,07,07,10,57,18.70
2014,07,07,10,58,18.70
2014,07,07,10,59,18.70
2014,07,07,11,00,18.70
2014,07,07,11,01,18.70
2014,07,07,11,02,18.70
2014,07,07,11,03,18.70
2014,07,07,11,04,18.70
2014,07,07,11,05,18.70
2014,07,07,11,06,18.70
2014,07,07,11,07,18.60
2014,07,07,11,08,18.60
2014,07,07,11,09,18.60
2014,07,07,11,10,18.70
2014,07,07,11,11,18.70
2014,07,07,11,12,18.70
2014,07,07,11,13,18.70
2014,07,07,11,14,18.80
2014,07,07,11,15,18.80
2014,07,07,11,16,18.90
2014,07,07,11,17,19.00
2014,07,07,11,18,19.10
2014,07,07,11,19,19.10
2014,07,07,11,20,19.10
2014,07,07,11,21,19.10
2014,07,07,11,22,19.20
2014,07,07,11,23,19.20
2014,07,07,11,24,19.30
2014,07,07,11,25,19.30
2014,07,07,11,26,19.30
2014,07,07,11,27,19.30
2014,07,07,11,28,19.40
2014,07,07,11,29,19.50
2014,07,07,11,30,19.60
2014,07,07,11,31,19.70
2014,07,07,11,32,19.70
2014,07,07,11,33,19.80
2014,07,07,11,34,19.80
2014,07,07,11,35,19.80
2014,07,07,11,36,19.80
2014,07,07,11,37,19.80
2014,07,07,11,38,19.80
2014,07,07,11,39,19.80
2014,07,07,11,40,19.80
2014,07,07,11,41,19.80
2014,07,07,11,42,19.80
2014,07,07,11,43,19.80
2014,07,07,11,44,19.70
2014,07,07,11,45,19.60
2014,07,07,11,46,19.50
2014,07,07,11,47,19.50
2014,07,07,11,48,19.50
2014,07,07,11,49,19.50
2014,07,07,11,50,19.50
2014,07,07,11,51,19.50
2014,07,07,11,52,19.60
2014,07,07,11,53,19.60
2014,07,07,11,54,19.60
2014,07,07,11,55,19.60
2014,07,07,11,56,19.70
2014,07,07,11,57,19.70
2014,07,07,11,58,19.70
2014,07,07,11,59,19.70
2014,07,07,12,00,19.70
2014,07,07,12,01,19.70
2014,07,07,12,02,19.70
2014,07,07,12,03,19.70
2014,07,07,12,04,19.80
2014,07,07,12,05,19.80
2014,07,07,12,06,19.90
2014,07,07,12,07,19.90
2014,07,07,12,08,20.00
2014,07,07,12,09,20.00
2014,07,07,12,10,20.00
2014,07,07,12,11,20.00
2014,07,07,12,12,20.00
2014,07,07,12,13,20.00
2014,07,07,12,14,20.00
2014,07,07,12,15,20.00
2014,07,07,12,16,20.10
2014,07,07,12,17,20.10
2014,07,07,12,18,20.20
2014,07,07,12,19,20.30
2014,07,07,12,20,20.40
2014,07,07,12,21,20.60
2014,07,07,12,22,20.70
2014,07,07,12,23,20.80
2014,07,07,12,24,20.90
2014,07,07,12,25,20.90
2014,07,07,12,26,21.00
2014,07,07,12,27,21.20
2014,07,07,12,28,21.30
2014,07,07,12,29,21.40
2014,07,07,12,30,21.60
2014,07,07,12,31,21.60
2014,07,07,12,32,21.70
2014,07,07,12,33,21.70
2014,07,07,12,34,21.70
2014,07,07,12,35,21.70
2014,07,07,12,36,21.70
2014,07,07,12,37,21.80
2014,07,07,12,38,21.80
2014,07,07,12,39,21.80
2014,07,07,12,40,21.80
2014,07,07,12,41,21.90
2014,07,07,12,42,22.00
2014,07,07,12,43,22.10
2014,07,07,12,44,22.10
2014,07,07,12,45,22.20
2014,07,07,12,46,22.20
2014,07,07,12,47,22.30
2014,07,07,12,48,22.30
2014,07,07,12,49,22.40
2014,07,07,12,50,22.40
2014,07,07,12,51,22.30
2014,07,07,12,52,22.20
2014,07,07,12,53,22.10
2014,07,07,12,54,22.00
2014,07,07,12,55,22.00
2014,07,07,12,56,22.00
2014,07,07,12,57,22.10
2014,07,07,12,58,22.10
2014,07,07,12,59,22.10
2014,07,07,13,00,22.10
2014,07,07,13,01,22.00
2014,07,07,13,02,22.00
2014,07,07,13,03,22.00
2014,07,07,13,04,21.90
2014,07,07,13,05,21.70
2014,07,07,13,06,21.60
2014,07,07,13,07,21.60
2014,07,07,13,08,21.50
2014,07,07,13,09,21.50
2014,07,07,13,10,21.50
2014,07,07,13,11,21.50
2014,07,07,13,12,21.60
2014,07,07,13,13,21.60
2014,07,07,13,14,21.60
2014,07,07,13,15,21.60
2014,07,07,13,16,21.70
2014,07,07,13,17,21.80
2014,07,07,13,18,21.90
2014,07,07,13,19,21.90
2014,07,07,13,20,22.00
2014,07,07,13,21,22.20
2014,07,07,13,22,22.30
2014,07,07,13,23,22.40
2014,07,07,13,24,22.40
2014,07,07,13,25,22.50
2014,07,07,13,26,22.60
2014,07,07,13,27,22.60
2014,07,07,13,28,22.60
2014,07,07,13,29,22.50
2014,07,07,13,30,22.40
2014,07,07,13,31,22.30
2014,07,07,13,32,22.30
2014,07,07,13,33,22.20
2014,07,07,13,34,22.20
2014,07,07,13,35,22.20
2014,07,07,13,36,22.20
2014,07,07,13,37,22.30
2014,07,07,13,38,22.30
2014,07,07,13,39,22.30
2014,07,07,13,40,22.40
2014,07,07,13,41,22.40
2014,07,07,13,42,22.40
2014,07,07,13,43,22.40
2014,07,07,13,44,22.50
2014,07,07,13,45,22.50
2014,07,07,13,46,22.60
2014,07,07,13,47,22.50
2014,07,07,13,48,22.50
2014,07,07,13,49,22.60
2014,07,07,13,50,22.60
2014,07,07,13,51,22.70
2014,07,07,13,52,22.70
2014,07,07,13,53,22.70
2014,07,07,13,54,22.70
2014,07,07,13,55,22.70
2014,07,07,13,56,22.70
2014,07,07,13,57,22.70
2014,07,07,13,58,22.70
2014,07,07,13,59,22.70
2014,07,07,14,00,22.70
2014,07,07,14,01,22.70
2014,07,07,14,02,22.70
2014,07,07,14,03,22.70
2014,07,07,14,04,22.60
2014,07,07,14,05,22.60
2014,07,07,14,06,22.50
2014,07,07,14,07,22.50
2014,07,07,14,08,22.40
2014,07,07,14,09,22.40
2014,07,07,14,10,22.40
2014,07,07,14,11,22.30
2014,07,07,14,12,22.30
2014,07,07,14,13,22.40
2014,07,07,14,14,22.50
2014,07,07,14,15,22.50
2014,07,07,14,16,22.50
2014,07,07,14,17,22.40
2014,07,07,14,18,22.40
2014,07,07,14,19,22.40
2014,07,07,14,20,22.30
2014,07,07,14,21,22.30
2014,07,07,14,22,22.30
2014,07,07,14,23,22.30
2014,07,07,14,24,22.40
2014,07,07,14,25,22.40
2014,07,07,14,26,22.60
2014,07,07,14,27,22.70
2014,07,07,14,28,22.80
2014,07,07,14,29,22.80
2014,07,07,14,30,22.90
2014,07,07,14,31,22.90
2014,07,07,14,32,23.00
2014,07,07,14,33,23.00
2014,07,07,14,34,22.90
2014,07,07,14,35,22.90
2014,07,07,14,36,22.80
2014,07,07,14,37,22.60
2014,07,07,14,38,22.50
2014,07,07,14,39,22.50
2014,07,07,14,40,22.40
2014,07,07,14,41,22.40
2014,07,07,14,42,22.40
2014,07,07,14,43,22.40
2014,07,07,14,44,22.40
2014,07,07,14,45,22.30
2014,07,07,14,46,22.40
2014,07,07,14,47,22.50
2014,07,07,14,48,22.70
2014,07,07,14,49,22.80
2014,07,07,14,50,22.80
2014,07,07,14,51,22.80
2014,07,07,14,52,22.80
2014,07,07,14,53,22.70
2014,07,07,14,54,22.70
2014,07,07,14,55,22.70
2014,07,07,14,56,22.80
2014,07,07,14,57,22.80
2014,07,07,14,58,22.90
2014,07,07,14,59,22.90
2014,07,07,15,00,22.90
2014,07,07,15,01,22.90
2014,07,07,15,02,22.90
2014,07,07,15,03,22.80
2014,07,07,15,04,22.80
2014,07,07,15,05,22.80
2014,07,07,15,06,22.80
2014,07,07,15,07,22.90
2014,07,07,15,08,22.90
2014,07,07,15,09,22.90
2014,07,07,15,10,22.80
2014,07,07,15,11,22.80
2014,07,07,15,12,22.80
2014,07,07,15,13,22.90
2014,07,07,15,14,22.90
2014,07,07,15,15,23.00
2014,07,07,15,16,23.10
2014,07,07,15,17,23.20
2014,07,07,15,18,23.20
2014,07,07,15,19,23.10
2014,07,07,15,20,23.20
2014,07,07,15,21,23.10
2014,07,07,15,22,23.10
2014,07,07,15,23,23.00
2014,07,07,15,24,22.90
2014,07,07,15,25,22.90
2014,07,07,15,26,22.80
2014,07,07,15,27,22.70
2014,07,07,15,28,22.70
2014,07,07,15,29,22.80
2014,07,07,15,30,22.70
2014,07,07,15,31,22.70
2014,07,07,15,32,22.70
2014,07,07,15,33,22.70
2014,07,07,15,34,22.80
2014,07,07,15,35,22.80
2014,07,07,15,36,22.80
2014,07,07,15,37,22.80
2014,07,07,15,38,22.80
2014,07,07,15,39,22.90
2014,07,07,15,40,22.90
2014,07,07,15,41,23.00
2014,07,07,15,42,23.10
2014,07,07,15,43,23.20
2014,07,07,15,44,23.20
2014,07,07,15,45,23.30
2014,07,07,15,46,23.40
2014,07,07,15,47,23.50
2014,07,07,15,48,23.60
2014,07,07,15,49,23.60
2014,07,07,15,50,23.70
2014,07,07,15,51,23.80
2014,07,07,15,52,23.80
2014,07,07,15,53,23.80
2014,07,07,15,54,23.80
2014,07,07,15,55,23.80
2014,07,07,15,56,23.80
2014,07,07,15,57,23.80
2014,07,07,15,58,23.80
2014,07,07,15,59,23.80
2014,07,07,16,00,23.80
2014,07,07,16,01,23.80
2014,07,07,16,02,23.80
2014,07,07,16,03,23.80
2014,07,07,16,04,23.80
2014,07,07,16,05,23.80
2014,07,07,16,06,23.80
2014,07,07,16,07,23.80
2014,07,07,16,08,23.80
2014,07,07,16,09,23.90
2014,07,07,16,10,24.00
2014,07,07,16,11,24.10
2014,07,07,16,12,24.10
2014,07,07,16,13,24.10
2014,07,07,16,14,24.10
2014,07,07,16,15,24.10
2014,07,07,16,16,24.10
2014,07,07,16,17,24.10
2014,07,07,16,18,24.10
2014,07,07,16,19,24.10
2014,07,07,16,20,24.10
2014,07,07,16,21,24.10
2014,07,07,16,22,24.10
2014,07,07,16,23,24.20
2014,07,07,16,24,24.20
2014,07,07,16,25,24.30
2014,07,07,16,26,24.40
2014,07,07,16,27,24.40
2014,07,07,16,28,24.50
2014,07,07,16,29,24.50
2014,07,07,16,30,24.60
2014,07,07,16,31,24.70
2014,07,07,16,32,24.70
2014,07,07,16,33,24.70
2014,07,07,16,34,24.80
2014,07,07,16,35,24.80
2014,07,07,16,36,24.80
2014,07,07,16,37,24.80
2014,07,07,16,38,24.80
2014,07,07,16,39,24.80
2014,07,07,16,40,24.80
2014,07,07,16,41,24.80
2014,07,07,16,42,24.80
2014,07,07,16,43,24.80
2014,07,07,16,44,24.80
2014,07,07,16,45,24.80
2014,07,07,16,46,24.70
2014,07,07,16,47,24.70
2014,07,07,16,48,24.70
2014,07,07,16,49,24.60
2014,07,07,16,50,24.60
2014,07,07,16,51,24.60
2014,07,07,16,52,24.70
2014,07,07,16,53,24.70
2014,07,07,16,54,24.80
2014,07,07,16,55,24.90
2014,07,07,16,56,25.00
2014,07,07,16,57,25.10
2014,07,07,16,58,25.20
2014,07,07,16,59,25.20
2014,07,07,17,00,25.30
2014,07,07,17,01,25.30
2014,07,07,17,02,25.30
2014,07,07,17,03,25.30
2014,07,07,17,04,25.30
2014,07,07,17,05,25.20
2014,07,07,17,06,25.20
2014,07,07,17,07,25.20
2014,07,07,17,08,25.20
2014,07,07,17,09,25.20
2014,07,07,17,10,25.30
2014,07,07,17,11,25.30
2014,07,07,17,12,25.20
2014,07,07,17,13,25.20
2014,07,07,17,14,25.20
2014,07,07,17,15,25.20
2014,07,07,17,16,25.10
2014,07,07,17,17,25.10
2014,07,07,17,18,25.00
2014,07,07,17,19,25.00